STARLINK-36610, 67637

Orbit data source: Space-Track

STARLINK-36610, 67637 is a payload satellite owned by SpaceX/Seattle (US) in LEO that was launched on Fri, 30 Jan 2026 UTC via an FALCON 9 launch vehicle from the Air Force Eastern Test Range (AFETR). Payload-class satellites include a variety of spacecraft equipped with specific instruments for various scientific and technological missions. These include communications satellites like Starlink; space stations such as the ISS; scientific satellites like the Hubble; Earth observation satellites from companies like Planet Labs, Umbra, and HawkEye 360; GPS; miniature CubeSats for education and research; and military/defense satellites.

Loading next visibility...
Identifier
67637, 2026-020W
Orbit
LEO
Country
Flag of USUS
Related business
Manufacturer
SpaceX/Seattle
Mission
Operational spacecraft
Bus & Motor
STARLINK V2MO, Unknown motor
Mass
575 kg wet, ~530 kg dry
Launch date (UTC)
2026-01-30 (2 months ago)
Launch vehicle
FALCON 9
Launch site
Air Force Eastern Test Range (AFETR)
Object type
Payload
Rocket body
Debris
Shape & HBR
Unknown shape, 17.7 m
Radar Cross Section
RCS unknown

Expand to show TLE details & history
Last TLE update: 12 hours ago

TLE from 12 hours ago
0 STARLINK-36610
1 67637U 26020W   26104.58161367  .00008478  00000-0  31723-3 0  9995
2 67637  42.9993 297.0047 0000975 261.0741  99.0001 15.27583482 11600
Epoch: 2026-04-14T13:57Z
TLE epoch observation values (Epoch: 2026-04-14T13:57:31.421Z)
Latitude
0.00005°
Longitude
-115.13197°
Altitude
482.919 km
Speed
7.626 km/s
True Right ascension
19h 48m 01s
True Declination
0° 00' 00"
Sunlit
Object was in daylight at epoch
Visualization orbit readout
Latitude
Unknown
Longitude
Unknown
Altitude
Unknown
Speed
Unknown
Apparent Right ascension
Unknown
Apparent Declination
Unknown
Sunlit
N/A
Visualization observer readout
Local Sidereal Time
08:44:46
Azimuth
Unknown
Elevation
Unknown
Doppler factor
Unknown
Orbital elements
Apogee altitude
485.653 km
Perigee altitude
484.315 km
Semi-major axis
6,863.121 km
Eccentricity
0.0001
Inclination
42.9993°
RAAN
297.0047°
Arg. of periapsis
261.0741°
True anomaly
99.01113°
Mean anomaly
99.0001°
Eccentric anomaly
99.00562°
Mean motion
3.81734 °/min
Orbital period
94.31 mins
BSTAR
0.00031723
Loading maneuver chart data...
Computing Atmospheric mass density...
Loading historical data...
Loading historical data...
Loading historical data...
Loading historical data...
Loading historical data...
Loading historical data...
Loading historical data...

Documentation

Showing up to 5 results
|